This demonstration page uses our WeatherBlox Daily Observations layout. Learn more.

Left ArrowRight Arrow

41.12389, -100.76542

Hourly Observations for March 25, 2020

Temp ( °F °C ) Dew Point ( °F °C ) Humidity (%) Winds ( mph kmh ) Pressure ( in mb ) Visibility ( mi km ) Precip ( " mm )
12:53 am 00:53 Mostly Cloudy 43 6.1 35 1.7 74 74 WSW 3 6 29.77 1008 10 16 0.00 0.00
1:53 am 01:53 Cloudy 45 7.2 36 2.2 71 71 NNW 6 9 29.76 1008 10 16 0.00 0.00
2:53 am 02:53 Cloudy 48 8.9 34 1.1 58 58 VRB 5 7 29.71 1006 10 16 0.00 0.00
3:53 am 03:53 Cloudy 45 7.2 37 2.8 74 74 Calm 29.71 1006 10 16 0.00 0.00
4:53 am 04:53 Mostly Cloudy 45 7.2 36 2.2 71 71 ESE 5 7 29.67 1005 10 16 0.00 0.00
5:53 am 05:53 Mostly Clear 40 4.4 33 0.6 77 77 ESE 8 13 29.67 1005 10 16 0.00 0.00
6:53 am 06:53 Clear 40 4.4 33 0.6 77 77 E 3 6 29.67 1005 10 16 0.00 0.00
7:53 am 07:53 Sunny 37 2.8 31 -0.6 79 79 Calm 29.67 1005 10 16 0.00 0.00
8:53 am 08:53 Sunny 43 6.1 36 2.2 76 76 Calm 29.68 1005 10 16 0.00 0.00
9:53 am 09:53 Sunny 51 10.6 40 4.4 66 66 S 3 6 29.67 1005 10 16 0.00 0.00
10:53 am 10:53 Sunny 58 14.4 42 5.6 56 56 Calm 29.67 1005 10 16 0.00 0.00
11:53 am 11:53 Sunny 63 17.2 42 5.6 47 47 NNW 10 17 29.67 1005 10 16 0.00 0.00
12:53 pm 12:53 Sunny 66 18.9 40 4.4 39 39 WNW 12 19 29.67 1005 10 16 0.00 0.00
1:53 pm 13:53 Sunny 69 20.6 35 1.7 29 29 NW 12 19 29.65 1004 10 16 0.00 0.00
2:53 pm 14:53 Sunny 69 20.6 34 1.1 27 27 NNW 16 26 29.64 1004 10 16 0.00 0.00
3:53 pm 15:53 Sunny 71 21.7 29 -1.7 21 21 NW 16 26 29.65 1004 10 16 0.00 0.00
4:25 pm 16:25 Mostly Sunny 71 21.7 35 1.7 27 27 NNW 14 22 29.56 1001 10 16 0.00 0.00
4:53 pm 16:53 Sunny 70 21.1 31 -0.6 23 23 WNW 15 24 29.65 1004 10 16 0.00 0.00
5:53 pm 17:53 Sunny 68 20 32 0 26 26 NNW 15 24 29.67 1005 10 16 0.00 0.00
6:34 pm 18:34 Sunny 64 17.8 36 2.2 35 35 ENE 17 28 29.61 1003 10 16 0.00 0.00
6:53 pm 18:53 Sunny 61 16.1 36 2.2 39 39 ENE 20 31 29.69 1005 10 16 0.00 0.00
7:53 pm 19:53 Sunny 51 10.6 37 2.8 59 59 ENE 13 20 29.74 1007 10 16 0.00 0.00
8:53 pm 20:53 Clear 46 7.8 36 2.2 68 68 E 7 11 29.76 1008 10 16 0.00 0.00
9:53 pm 21:53 Clear 42 5.6 34 1.1 73 73 ESE 6 9 29.79 1009 10 16 0.00 0.00
10:53 pm 22:53 Clear 40 4.4 34 1.1 79 79 E 9 15 29.80 1009 10 16 0.00 0.00
11:53 pm 23:53 Clear 39 3.9 34 1.1 82 82 ESE 9 15 29.79 1009 10 16 0.00 0.00

Powered by AerisWeather